Location: Muenchen
(48.1800°N, 11.5800°E)
Time: 23:16:15
(UTC+02:00)

ISS - Visible Passes

Search period start: 30 July 2014 00:00
Search period end: 09 August 2014 00:00
Orbit: 411 x 419 km, 51.6° (Epoch: 30 July)

Date Brightness Start Highest point End Pass type
(mag) Time Alt. Az. Time Alt. Az. Time Alt. Az.
30 Jul -0.8 01:12:46 16° ENE 01:12:46 16° ENE 01:13:34 10° ENE visible
30 Jul -2.2 02:45:37 26° WNW 02:47:06 45° N 02:50:22 10° ENE visible
30 Jul -2.7 04:20:49 10° WNW 04:24:09 60° NNE 04:27:29 10° E visible
31 Jul -2.3 01:58:28 49° N 01:58:28 49° N 02:01:29 10° ENE visible
31 Jul -2.3 03:31:58 10° WNW 03:35:15 50° N 03:38:33 10° E visible
31 Jul -3.2 05:08:44 10° WNW 05:12:03 57° SSW 05:15:21 10° SE visible
01 Aug -1.1 01:11:24 20° ENE 01:11:24 20° ENE 01:12:38 10° ENE visible
01 Aug -2.2 02:44:16 20° WNW 02:46:19 45° N 02:49:35 10° E visible
01 Aug -3.3 04:19:52 10° WNW 04:23:15 83° SSW 04:26:36 10° ESE visible
02 Aug -2.1 01:57:26 44° N 01:57:26 44° N 02:00:38 10° ENE visible
02 Aug -3.1 03:31:01 10° WNW 03:34:23 73° NNE 03:37:45 10° ESE visible
02 Aug -2.2 05:08:00 10° W 05:10:54 27° SW 05:13:47 10° SSE visible
02 Aug -1.6 21:53:18 10° S 21:55:18 15° SE 21:55:21 15° SE visible
02 Aug -0.7 23:28:13 10° WSW 23:28:31 12° WSW 23:28:31 12° WSW visible
03 Aug -0.5 01:11:18 13° ENE 01:11:18 13° ENE 01:11:42 10° ENE visible
03 Aug -2.7 02:44:17 34° NW 02:45:29 57° NNE 02:48:48 10° E visible
03 Aug -2.9 04:18:58 10° WNW 04:22:09 41° SSW 04:25:20 10° SE visible
03 Aug -3.2 22:39:30 10° SW 22:42:45 50° SSE 22:45:01 18° E visible
04 Aug -1.6 00:16:12 10° W 00:18:02 28° WNW 00:18:02 28° WNW visible
04 Aug -3.4 03:33:23 62° SSW 03:33:23 62° SSW 03:36:41 10° SE visible
04 Aug -1.3 05:08:06 10° WSW 05:09:32 12° SW 05:10:58 10° SSW visible
04 Aug -2.6 21:50:57 10° SSW 21:53:58 32° SE 21:57:01 10° E visible
04 Aug -2.9 23:27:14 10° W 23:30:33 64° NNW 23:32:12 27° ENE visible
05 Aug -0.7 01:04:20 10° WNW 01:05:06 16° WNW 01:05:06 16° WNW visible
05 Aug -3.3 22:38:18 10° WSW 22:41:39 85° NNW 22:45:01 10° ENE visible
06 Aug -2.1 00:15:22 10° WNW 00:18:18 42° NNW 00:18:18 42° NNW visible
06 Aug -3.4 21:49:28 10° WSW 21:52:46 69° SSE 21:56:07 10° ENE visible
06 Aug -2.3 23:26:22 10° W 23:29:37 47° N 23:31:13 25° NE visible
07 Aug -0.6 01:03:22 10° WNW 01:04:04 15° WNW 01:04:04 15° WNW visible
07 Aug -2.5 22:37:22 10° W 22:40:39 54° NNW 22:43:57 10° ENE visible
08 Aug -1.8 00:14:27 10° WNW 00:16:51 37° NW 00:16:51 37° NW visible
08 Aug -2.9 21:48:22 10° WSW 21:51:42 68° NNW 21:55:02 10° ENE visible
08 Aug -2.2 23:25:29 10° WNW 23:28:42 44° N 23:29:34 35° NE visible
